Location: Hartman Creek State Park
(44.3257°N, 89.2134°W)
Time: 13:21:11
(UTC-05:00)

Terra - Visible Passes

Search period start: 29 May 2015 00:00
Search period end: 08 June 2015 00:00
Orbit: 701 x 703 km, 98.2° (Epoch: 29 May)

Date Brightness Start Highest point End Pass type
(mag) Time Alt. Az. Time Alt. Az. Time Alt. Az.
29 May 3.9 21:20:35 10° E 21:22:44 13° ENE 21:25:07 10° NNE visible
29 May 1.8 22:57:57 36° S 22:59:56 82° W 23:04:43 10° NNW visible
30 May 2.9 22:02:19 17° ESE 22:05:07 31° ENE 22:09:19 10° N visible
30 May 3.1 23:41:11 25° SW 23:42:52 31° W 23:47:05 10° NNW visible
31 May 4.1 21:10:03 10° ENE 21:10:43 10° ENE 21:11:37 10° NE visible
31 May 1.8 22:45:33 32° SSE 22:47:44 77° ENE 22:52:31 10° N visible
01 Jun 4.2 00:24:25 11° WSW 00:26:11 12° W 00:27:57 10° WNW visible
01 Jun 3.3 21:49:54 13° ESE 21:53:02 24° ENE 21:56:53 10° NNE visible
01 Jun 2.7 23:28:47 29° SW 23:30:37 41° W 23:35:06 10° NNW visible
02 Jun 2.0 22:33:09 27° SE 22:35:35 59° ENE 22:40:17 10° N visible
03 Jun 3.9 00:12:02 14° WSW 00:13:49 16° W 00:16:40 10° NW visible
03 Jun 3.5 21:37:42 10° ESE 21:40:58 19° ENE 21:44:22 10° NNE visible
03 Jun 2.3 23:16:24 32° SSW 23:18:22 54° W 23:23:04 10° NNW visible
04 Jun 2.4 22:20:46 22° SE 22:23:27 45° ENE 22:28:01 10° N visible
04 Jun 3.6 23:59:39 17° WSW 00:01:29 21° W 00:05:02 10° NW visible
05 Jun 3.8 21:26:20 10° E 21:28:56 15° ENE 21:31:43 10° NNE visible
05 Jun 1.9 23:04:02 32° S 23:06:12 71° WSW 23:10:58 10° NNW visible
06 Jun 2.7 22:08:25 17° ESE 22:11:23 35° ENE 22:15:42 10° N visible
06 Jun 3.3 23:47:18 21° SW 23:49:13 27° W 23:53:14 10° NW visible
07 Jun 4.0 21:15:19 10° E 21:16:55 12° ENE 21:18:46 10° NE visible
07 Jun 1.8 22:51:41 30° SSE 22:54:02 88° ENE 22:58:49 10° NNW visible
